Location: Tierz
(42.1336°N, 0.3549°W)
Time: 06:22:06
(UTC+00:00)

Cosmos 883 Rocket - Pass Details

Date: 29 October 2020
Orbit: 950 x 995 km, 83.0° (Epoch: 26 November)

Event Time Altitude Azimuth Distance (km) Brightness Sun altitude
Rises 18:49:36 0° 182° (S) 3,637 7.5 -21.1°
Reaches altitude 10° 18:52:06 10° 181° (S) 2,689 6.8 -21.6°
Maximum altitude 18:58:14 80° 96° (E) 975 4.3 -22.7°
Drops below altitude 10° 19:04:22 10° 10° (N) 2,687 6.7 -23.8°
Sets 19:06:52 0° 9° (N) 3,634 7.4 -24.3°
